QPF
0.00 0.00 0.00 0.00 0.00 0.00 0.00 0.00 0.00 0.00 0.00 0.00 0.00 0.00 0.00 0.00 0.00 0.00 0.00 0.00 0.00 0.00 0.00 0.00 0.00 0.00 0.00 0.00 0.00 0.00 0.00 0.00 0.00 0.00 0.00 0.00 0.00 0.00 0.00 0.00 0.00 0.00 0.02
0.00 0.00 0.00 0.00 0.00 0.00 0.00 0.00 0.00 0.00 0.00 0.00 0.00 0.00 0.00 0.00 0.00 0.00 0.00 0.00 0.00 0.00 0.00 0.00 0.00 0.00 0.00 0.00 0.00 0.00 0.00 0.00 0.00 0.00 0.00 0.00 0.00 0.00 0.00 0.00 0.00 0.00 0.00
0.00 0.00 0.00 0.00 0.00 0.00 0.00 0.00 0.00 0.00 0.00 0.00 0.00 0.00 0.00 0.00 0.00 0.00 0.00 0.00 0.00 0.00 0.00 0.00 0.00 0.00 0.00 0.00 0.00 0.00 0.00 0.00 0.00 0.00 0.00 0.00 0.00 0.00 0.00 0.00 0.00 0.00 0.00
0.00 0.00 0.00 0.00 0.00 0.00 0.00 0.00 0.00 0.00 0.00 0.00 0.00 0.00 0.00 0.00 0.00 0.00 0.00 0.00 0.00 0.00 0.00 0.00 0.00 0.00 0.00 0.00 0.00 0.00 0.00 0.00 0.00 0.00 0.00 0.00 0.00 0.00 0.00 0.00 0.00 0.00 0.00
0.00 0.00 0.00 0.00 0.00 0.00 0.00 0.00 0.00 0.00 0.00 0.00 0.00 0.00 0.00 0.00 0.00 0.00 0.00 0.00 0.00 0.00 0.00 0.00 0.00 0.00 0.00 0.00 0.00 0.00 0.00 0.00 0.00 0.00 0.00 0.00 0.00 0.00 0.00 0.00 0.00 0.00 0.00
0.00 0.00 0.00 0.00 0.00 0.00 0.00 0.00 0.00 0.00 0.00 0.00 0.00 0.00 0.00 0.00 0.00 0.00 0.00 0.00 0.00 0.00 0.00 0.00 0.00 0.00 0.00 0.00 0.00 0.00 0.00 0.00 0.00 0.00 0.00 0.00 0.00 0.00 0.00 0.00 0.00 0.00 0.00
0.00 0.00 0.00 0.00 0.00 0.00 0.00 0.00 0.00 0.00 0.00 0.00 0.00 0.00 0.00 0.00 0.00 0.00 0.00 0.00 0.00 0.00 0.00 0.00 0.00 0.00 0.00 0.00 0.00 0.00 0.00 0.00 0.00 0.00 0.00 0.00 0.00 0.00 0.00 0.00 0.00 0.00 0.00
0.00 0.00 0.00 0.00 0.00 0.00 0.00 0.00 0.00 0.00 0.00 0.00 0.00 0.00 0.00 0.00 0.00 0.00 0.00 0.00 0.00 0.00 0.00 0.00 0.00 0.00 0.00 0.00 0.00 0.00 0.00 0.00 0.00 0.00 0.00 0.00 0.00 0.00 0.00 0.00 0.00 0.00 0.00
0.00 0.00 0.00 0.00 0.00 0.00 0.00 0.00 0.00 0.00 0.00 0.00 0.00 0.00 0.00 0.00 0.00 0.00 0.00 0.00 0.00 0.00 0.00 0.00 0.00 0.00 0.00 0.00 0.00 0.00 0.00 0.00 0.00 0.00 0.00 0.00 0.00 0.00 0.00 0.00 0.00 0.00 0.00
0.00 0.00 0.00 0.00 0.00 0.00 0.00 0.00 0.00 0.00 0.00 0.00 0.00 0.00 0.00 0.00 0.00 0.00 0.00 0.00 0.00 0.00 0.00 0.00 0.00 0.00 0.00 0.00 0.00 0.00 0.00 0.00 0.00 0.00 0.00 0.00 0.00 0.00 0.00 0.00 0.00 0.00 0.00
0.00 0.00 0.00 0.00 0.00 0.00 0.00 0.00 0.00 0.00 0.00 0.00 0.00 0.00 0.00 0.00 0.00 0.00 0.00 0.00 0.00 0.00 0.00 0.00 0.00 0.00 0.00 0.00 0.00 0.00 0.00 0.00 0.00 0.00 0.00 0.00 0.00 0.00 0.00 0.00 0.00 0.00 0.00
0.00 0.00 0.00 0.00 0.00 0.00 0.00 0.00 0.00 0.00 0.00 0.00 0.00 0.00 0.00 0.00 0.00 0.00 0.00 0.00 0.00 0.00 0.00 0.00 0.00 0.00 0.00 0.00 0.00 0.00 0.00 0.00 0.00 0.00 0.00 0.00 0.00 0.00 0.00 0.00 0.00 0.00 0.00
0.00 0.00 0.00 0.00 0.00 0.00 0.00 0.00 0.00 0.00 0.00 0.00 0.00 0.00 0.00 0.00 0.00 0.00 0.00 0.00 0.00 0.00 0.00 0.00 0.00 0.00 0.00 0.00 0.00 0.00 0.00 0.00 0.00 0.00 0.00 0.00 0.00 0.00 0.00 0.00 0.00 0.00 0.00
0.00 0.00 0.00 0.00 0.00 0.00 0.00 0.00 0.00 0.00 0.00 0.00 0.00 0.00 0.00 0.00 0.00 0.00 0.00 0.00 0.00 0.00 0.00 0.00 0.00 0.00 0.00 0.00 0.00 0.00 0.00 0.00 0.00 0.00 0.00 0.00 0.00 0.00 0.00 0.00 0.00 0.00 0.00
0.00 0.00 0.00 0.00 0.00 0.00 0.00 0.00 0.00 0.00 0.00 0.00 0.00 0.00 0.00 0.00 0.00 0.00 0.00 0.00 0.00 0.00 0.00 0.00 0.00 0.00 0.00 0.00 0.00 0.00 0.00 0.00 0.00 0.00 0.00 0.00 0.00 0.00 0.00 0.00 0.00 0.00 0.00
0.00 0.00 0.00 0.00 0.00 0.00 0.00 0.00 0.00 0.00 0.00 0.00 0.00 0.00 0.00 0.00 0.00 0.00 0.00 0.00 0.00 0.00 0.00 0.00 0.00 0.00 0.00 0.00 0.00 0.00 0.00 0.00 0.00 0.00 0.00 0.00 0.00 0.00 0.00 0.00 0.00 0.00 0.00
0.00 0.00 0.00 0.00 0.00 0.00 0.00 0.00 0.00 0.00 0.00 0.00 0.00 0.00 0.00 0.00 0.00 0.00 0.00 0.00 0.00 0.00 0.00 0.00 0.00 0.00 0.00 0.00 0.00 0.00 0.00 0.00 0.00 0.00 0.00 0.00 0.00 0.00 0.00 0.00 0.00 0.00 0.00
0.00 0.00 0.00 0.00 0.00 0.00 0.00 0.00 0.00 0.00 0.00 0.00 0.00 0.00 0.00 0.00 0.00 0.00 0.00 0.00 0.00 0.00 0.00 0.00 0.00 0.00 0.00 0.00 0.00 0.00 0.00 0.00 0.00 0.00 0.00 0.00 0.00 0.00 0.00 0.00 0.00 0.00 0.00
0.00 0.00 0.00 0.00 0.00 0.00 0.00 0.00 0.00 0.00 0.00 0.00 0.00 0.00 0.00 0.00 0.00 0.00 0.00 0.00 0.00 0.00 0.00 0.00 0.00 0.00 0.00 0.00 0.00 0.00 0.00 0.00 0.00 0.00 0.00 0.00 0.00 0.00 0.00 0.00 0.00 0.00 0.00
0.00 0.00 0.00 0.00 0.00 0.00 0.00 0.00 0.00 0.00 0.00 0.00 0.00 0.00 0.00 0.00 0.00 0.00 0.00 0.00 0.00 0.00 0.00 0.00 0.00 0.00 0.00 0.00 0.00 0.00 0.00 0.00 0.01 0.00 0.00 0.00 0.00 0.00 0.00 0.00 0.00 0.00 0.00
0.00 0.00 0.00 0.00 0.00 0.00 0.00 0.00 0.00 0.00 0.00 0.00 0.00 0.00 0.00 0.00 0.00 0.00 0.00 0.00 0.00 0.00 0.00 0.00 0.00 0.00 0.00 0.00 0.00 0.00 0.00 0.00 0.00 0.00 0.00 0.00 0.00 0.00 0.00 0.01 0.00 0.00 0.00
0.00 0.00 0.00 0.00 0.00 0.00 0.00 0.00 0.00 0.00 0.00 0.00 0.00 0.00 0.00 0.00 0.00 0.00 0.00 0.00 0.00 0.00 0.00 0.00 0.00 0.00 0.00 0.00 0.00 0.00 0.00 0.00 0.00 0.00 0.00 0.00 0.00 0.01 0.01 0.00 0.00 0.00 0.00
0.00 0.00 0.00 0.00 0.00 0.00 0.00 0.00 0.00 0.00 0.00 0.00 0.00 0.00 0.00 0.00 0.00 0.00 0.00 0.00 0.00 0.00 0.00 0.00 0.00 0.00 0.00 0.00 0.00 0.00 0.00 0.00 0.00 0.00 0.00 0.00 0.00 0.00 0.00 0.00 0.00 0.00 0.00
0.00 0.00 0.00 0.00 0.00 0.00 0.00 0.00 0.00 0.00 0.00 0.00 0.00 0.00 0.00 0.00 0.00 0.00 0.00 0.00 0.00 0.00 0.00 0.00 0.00 0.00 0.00 0.00 0.00 0.00 0.00 0.00 0.00 0.00 0.00 0.00 0.00 0.00 0.00 0.00 0.00 0.00 0.00
0.00 0.00 0.00 0.01 0.00 0.00 0.00 0.00 0.00 0.00 0.00 0.00 0.00 0.00 0.00 0.00 0.00 0.00 0.00 0.00 0.00 0.00 0.00 0.00 0.00 0.00 0.00 0.00 0.00 0.01 0.00 0.00 0.00 0.00 0.00 0.00 0.00 0.00 0.00 0.00 0.00 0.00 0.00
0.00 0.01 0.01 0.00 0.00 0.00 0.00 0.00 0.00 0.00 0.00 0.00 0.00 0.00 0.00 0.00 0.00 0.00 0.00 0.00 0.00 0.00 0.00 0.01 0.01 0.00 0.00 0.00 0.01 0.00 0.00 0.01 0.00 0.00 0.00 0.00 0.00 0.00 0.00 0.00 0.00 0.00 0.00
MSLP
1012.30 1012.10 1012.91 1013.49 1014.09 1014.61 1014.97 1015.30 1015.77 1016.05 1016.30 1016.68 1017.07 1017.27 1017.44 1017.07 1017.04 1016.91 1016.77 1016.99 1017.14 1017.26 1017.52 1017.87 1018.10 1018.11 1018.29 1018.39 1018.47 1018.54 1018.65 1018.55 1018.37 1018.60 1018.44 1018.09 1017.65 1017.55 1017.11 1016.65 1016.26 1015.97 1015.81
1012.80 1013.30 1013.76 1014.03 1014.42 1014.86 1015.15 1015.34 1015.49 1015.71 1015.99 1016.18 1016.32 1016.46 1016.59 1016.55 1016.39 1016.24 1016.33 1016.50 1016.68 1016.82 1017.09 1017.34 1017.69 1017.71 1017.89 1018.00 1018.11 1018.38 1018.69 1018.65 1018.26 1018.56 1018.59 1018.27 1017.69 1017.35 1016.92 1016.48 1016.09 1015.80 1015.51
1012.98 1013.24 1013.60 1014.06 1014.29 1014.54 1014.65 1014.83 1014.98 1015.14 1015.39 1015.50 1015.75 1015.97 1016.11 1016.21 1016.24 1016.11 1016.25 1016.26 1016.04 1016.14 1016.42 1016.81 1017.18 1017.52 1017.67 1017.84 1017.97 1018.24 1018.50 1018.85 1018.58 1018.31 1018.64 1018.31 1017.94 1017.47 1016.87 1016.49 1016.18 1015.90 1015.56
1013.07 1013.40 1013.53 1013.80 1014.17 1014.16 1014.34 1014.43 1014.53 1014.69 1014.81 1015.04 1015.33 1015.66 1015.78 1015.94 1015.56 1015.45 1015.44 1015.70 1015.70 1015.75 1015.95 1016.17 1016.65 1017.08 1017.36 1017.64 1017.96 1018.05 1018.28 1018.65 1018.95 1018.53 1018.16 1018.15 1017.97 1017.72 1016.40 1016.31 1016.11 1015.74 1015.38
1013.30 1013.29 1013.47 1013.60 1013.63 1013.89 1014.05 1014.25 1014.38 1014.47 1014.42 1014.62 1014.98 1015.34 1015.35 1015.23 1014.98 1015.08 1015.27 1015.45 1015.40 1015.40 1015.77 1016.11 1016.58 1017.04 1017.32 1017.55 1018.17 1018.23 1018.19 1018.40 1018.54 1018.67 1018.42 1018.13 1017.82 1017.54 1017.24 1015.79 1015.75 1015.72 1015.19
1013.06 1013.25 1013.23 1013.33 1013.49 1013.76 1013.95 1014.08 1014.30 1014.24 1014.05 1014.04 1014.05 1014.36 1014.43 1014.46 1014.54 1014.69 1015.01 1015.15 1015.45 1015.75 1015.95 1016.11 1016.74 1017.03 1017.41 1017.76 1018.01 1018.05 1018.04 1018.28 1018.45 1018.42 1018.24 1018.07 1017.85 1017.42 1017.02 1016.32 1015.82 1015.33 1015.01
1013.06 1012.89 1012.94 1013.37 1013.64 1013.78 1013.85 1014.09 1014.31 1014.41 1014.06 1013.92 1013.75 1013.51 1013.38 1013.39 1013.54 1013.70 1014.09 1014.63 1015.21 1015.72 1016.17 1016.64 1016.97 1017.29 1017.11 1017.06 1017.47 1017.96 1018.32 1018.36 1018.27 1018.22 1017.79 1017.51 1017.29 1017.01 1016.69 1016.21 1015.53 1015.02 1014.49
1012.96 1013.15 1013.39 1013.68 1013.79 1013.82 1013.87 1014.04 1014.20 1014.19 1013.79 1013.49 1013.38 1013.09 1012.98 1012.97 1012.71 1012.88 1013.63 1014.37 1015.01 1015.56 1016.10 1016.42 1016.82 1017.25 1017.44 1017.62 1018.23 1018.75 1018.10 1017.92 1017.78 1017.61 1017.25 1016.93 1016.75 1016.51 1016.25 1015.98 1015.70 1014.57 1014.13
1012.93 1013.33 1013.57 1013.70 1013.91 1013.97 1013.99 1014.28 1014.28 1014.07 1013.60 1013.15 1012.92 1012.63 1012.41 1012.64 1012.73 1013.26 1013.83 1014.47 1015.00 1015.49 1016.05 1016.33 1017.25 1017.61 1017.67 1018.29 1018.06 1017.81 1017.55 1017.44 1017.25 1016.95 1016.59 1016.38 1016.13 1015.95 1015.73 1015.53 1015.44 1015.06 1013.87
1013.49 1013.76 1014.22 1014.15 1014.04 1013.95 1014.08 1014.04 1014.10 1013.88 1013.13 1012.68 1012.59 1012.60 1012.67 1013.01 1013.48 1013.88 1014.37 1014.78 1015.31 1015.66 1016.16 1016.95 1017.63 1017.93 1017.67 1017.52 1017.25 1017.17 1016.94 1016.80 1016.53 1016.27 1016.10 1015.83 1015.61 1015.38 1015.24 1015.05 1014.82 1014.56 1014.03
1014.33 1014.35 1014.33 1014.48 1014.57 1014.58 1014.54 1014.51 1014.13 1013.51 1013.02 1012.75 1012.64 1012.74 1013.05 1013.34 1013.70 1014.12 1014.57 1014.87 1015.35 1015.84 1016.58 1016.87 1017.16 1017.04 1016.84 1016.72 1016.67 1016.53 1016.32 1016.20 1015.92 1015.69 1015.49 1015.18 1014.98 1014.81 1014.65 1014.46 1014.18 1013.88 1013.65
1014.66 1014.88 1015.09 1015.01 1014.89 1014.73 1014.54 1014.11 1013.67 1013.21 1012.75 1012.61 1012.83 1013.13 1013.33 1013.57 1013.97 1014.37 1014.68 1014.88 1015.43 1015.92 1016.21 1016.35 1016.41 1016.26 1016.19 1016.11 1016.09 1015.98 1015.74 1015.60 1015.42 1015.11 1014.95 1014.56 1014.25 1014.05 1013.97 1013.88 1013.71 1013.51 1013.32
1015.33 1015.51 1015.41 1015.25 1014.89 1014.65 1014.48 1013.98 1013.52 1013.10 1012.76 1012.71 1013.00 1013.25 1013.48 1013.78 1014.15 1014.42 1014.69 1014.96 1015.23 1015.63 1015.72 1015.73 1015.73 1015.77 1015.75 1015.67 1015.55 1015.38 1015.16 1014.92 1014.59 1014.33 1014.12 1013.82 1013.66 1013.48 1013.32 1013.25 1013.15 1012.98 1012.71
1015.54 1015.64 1015.63 1015.40 1014.89 1014.59 1014.23 1013.82 1013.66 1013.25 1012.81 1012.92 1013.05 1013.20 1013.44 1013.76 1014.23 1014.53 1014.83 1014.97 1015.16 1015.35 1015.40 1015.39 1015.36 1015.31 1015.22 1015.11 1014.92 1014.73 1014.45 1014.23 1014.08 1013.97 1013.86 1013.69 1013.53 1013.37 1013.16 1013.00 1012.74 1012.59 1012.42
1016.10 1016.10 1015.68 1015.13 1014.78 1014.59 1014.34 1014.01 1013.73 1013.36 1013.20 1013.21 1013.58 1013.88 1013.97 1013.97 1014.15 1014.35 1014.55 1014.94 1015.14 1015.14 1015.11 1015.02 1015.00 1014.89 1014.83 1014.62 1014.38 1014.37 1014.32 1014.20 1013.94 1013.59 1013.33 1013.03 1012.79 1012.49 1012.30 1012.09 1011.75 1011.88 1011.74
1016.19 1015.88 1015.51 1015.08 1014.76 1014.46 1014.24 1014.07 1014.05 1013.94 1014.15 1013.96 1014.11 1013.98 1014.00 1014.31 1014.23 1014.76 1014.93 1015.04 1014.89 1014.95 1014.93 1014.81 1014.80 1014.73 1014.51 1014.30 1014.32 1014.27 1014.10 1013.85 1013.57 1013.08 1012.54 1012.17 1011.81 1011.42 1011.13 1010.93 1010.76 1010.86 1010.81
1016.20 1015.81 1015.42 1015.11 1014.73 1014.47 1014.45 1014.44 1014.21 1013.91 1013.76 1013.80 1013.96 1014.00 1014.05 1014.59 1014.71 1014.65 1014.55 1014.64 1014.84 1014.87 1014.86 1014.74 1014.58 1014.49 1014.46 1014.25 1014.04 1013.79 1013.37 1013.02 1012.71 1012.24 1011.66 1011.14 1010.68 1010.31 1009.99 1009.65 1009.45 1009.33 1009.33
1015.93 1015.47 1015.13 1014.95 1014.96 1014.83 1014.69 1014.45 1014.32 1014.02 1013.94 1014.03 1013.96 1013.79 1013.90 1014.19 1014.25 1014.29 1014.57 1014.80 1014.83 1014.91 1014.81 1014.55 1014.49 1014.42 1014.11 1013.83 1013.48 1013.03 1012.62 1012.20 1011.70 1011.13 1010.51 1009.99 1009.45 1009.10 1008.90 1008.62 1008.39 1008.08 1007.86
1015.46 1015.20 1014.91 1014.90 1014.80 1014.74 1014.56 1014.46 1014.30 1014.05 1013.85 1013.80 1013.72 1013.64 1013.77 1013.99 1014.22 1014.45 1014.69 1014.83 1014.81 1014.74 1014.67 1014.51 1014.27 1014.07 1013.70 1013.31 1012.86 1012.37 1011.86 1011.23 1010.58 1009.93 1009.36 1008.66 1008.12 1007.65 1007.40 1007.27 1006.98 1006.73 1006.47
1014.93 1014.71 1014.66 1014.74 1014.57 1014.39 1014.25 1014.30 1013.99 1013.76 1013.95 1013.95 1013.89 1013.83 1013.87 1014.16 1014.42 1014.65 1014.77 1014.72 1014.74 1014.73 1014.51 1014.27 1014.16 1013.75 1013.32 1012.85 1012.32 1011.70 1011.14 1010.59 1009.80 1008.99 1008.27 1007.63 1007.03 1006.47 1006.07 1005.84 1005.54 1005.24 1005.06
1014.61 1014.79 1014.86 1014.62 1014.39 1014.22 1014.21 1014.33 1014.08 1014.05 1014.02 1014.07 1014.04 1014.16 1014.26 1014.46 1014.55 1014.70 1014.80 1014.83 1014.79 1014.60 1014.55 1014.49 1014.03 1013.51 1013.03 1012.44 1011.79 1011.11 1010.61 1009.97 1008.98 1008.12 1007.18 1006.45 1005.81 1005.28 1004.87 1004.68 1004.40 1004.07 1003.97
1014.70 1014.92 1014.72 1014.52 1014.30 1014.27 1014.20 1014.17 1014.30 1014.35 1014.30 1014.34 1014.47 1014.61 1014.67 1014.68 1014.70 1014.94 1014.93 1014.85 1014.72 1014.63 1014.55 1014.26 1013.84 1013.27 1012.61 1011.98 1011.26 1010.57 1009.92 1009.14 1008.34 1007.19 1006.26 1005.47 1004.81 1004.28 1003.85 1003.49 1003.17 1002.98 1002.96
1015.19 1014.85 1014.53 1014.38 1014.43 1014.11 1014.13 1014.23 1014.55 1014.55 1014.69 1014.79 1014.93 1015.01 1014.92 1014.95 1015.03 1015.06 1014.98 1014.78 1014.65 1014.65 1014.57 1014.19 1013.61 1012.85 1012.06 1011.41 1010.74 1009.96 1009.07 1008.16 1007.33 1006.59 1005.71 1004.81 1003.91 1003.33 1002.88 1002.42 1002.05 1001.76 1001.61
1015.62 1015.12 1014.60 1014.40 1014.32 1013.98 1014.18 1014.39 1014.54 1014.64 1014.93 1015.28 1015.41 1015.45 1015.52 1015.51 1015.29 1015.07 1014.87 1014.76 1014.76 1014.59 1014.23 1013.82 1013.20 1012.41 1011.69 1011.05 1010.29 1009.44 1008.42 1007.44 1006.86 1006.22 1005.35 1004.64 1003.92 1003.14 1002.58 1001.91 1001.15 1000.51 1000.10
1015.78 1015.44 1014.80 1014.58 1014.18 1014.07 1014.45 1014.59 1014.70 1014.99 1015.47 1015.77 1015.87 1015.94 1015.87 1015.72 1015.49 1015.15 1014.96 1014.89 1014.64 1014.38 1013.81 1013.29 1012.80 1012.24 1011.58 1010.89 1010.05 1009.10 1008.10 1007.26 1006.88 1006.11 1005.48 1004.87 1004.19 1003.38 1002.54 1001.70 1000.81 1000.13 999.83
1015.91 1015.40 1015.02 1014.88 1014.78 1014.79 1015.16 1015.41 1015.52 1015.68 1015.96 1016.22 1016.29 1016.24 1016.10 1015.86 1015.63 1015.29 1015.02 1014.74 1014.39 1014.01 1013.58 1013.05 1012.76 1012.35 1011.65 1010.65 1009.74 1009.01 1008.16 1007.48 1006.85 1006.28 1006.07 1005.49 1004.67 1003.97 1003.12 1002.25 1001.27 1000.50 1000.02
Thickness
5683 5684 5676 5670 5663 5656 5650 5643 5634 5629 5623 5614 5605 5599 5592 5590 5585 5581 5575 5570 5565 5559 5553 5547 5541 5537 5531 5526 5522 5519 5515 5512 5510 5507 5510 5514 5516 5519 5522 5528 5532 5538 5541
5674 5670 5665 5661 5654 5646 5641 5636 5629 5622 5615 5608 5602 5595 5588 5584 5580 5574 5568 5561 5554 5549 5543 5537 5529 5524 5518 5513 5506 5499 5494 5491 5491 5487 5485 5488 5498 5500 5504 5511 5516 5520 5525
5670 5667 5661 5654 5648 5643 5639 5633 5624 5617 5608 5602 5596 5588 5580 5575 5568 5561 5554 5548 5544 5538 5531 5523 5516 5508 5501 5496 5489 5482 5475 5468 5469 5468 5463 5465 5472 5477 5483 5489 5495 5501 5506
5663 5659 5655 5650 5643 5639 5634 5628 5622 5612 5603 5594 5585 5577 5571 5563 5560 5555 5547 5537 5532 5526 5519 5511 5502 5494 5487 5479 5471 5466 5461 5452 5445 5446 5448 5447 5449 5455 5470 5468 5474 5481 5489
5650 5652 5647 5642 5640 5635 5629 5621 5612 5604 5596 5587 5576 5567 5560 5555 5550 5542 5532 5523 5518 5513 5503 5493 5482 5473 5465 5457 5447 5442 5440 5436 5432 5429 5428 5430 5431 5432 5438 5457 5458 5460 5469
5642 5641 5641 5637 5633 5626 5619 5611 5601 5592 5589 5582 5574 5564 5555 5549 5538 5529 5519 5510 5500 5491 5483 5475 5464 5455 5445 5436 5429 5425 5422 5418 5414 5414 5413 5411 5412 5417 5419 5428 5437 5442 5451
5631 5633 5630 5620 5612 5608 5602 5594 5583 5573 5572 5562 5556 5551 5547 5541 5533 5524 5512 5500 5486 5473 5461 5448 5441 5434 5430 5427 5419 5412 5405 5400 5397 5397 5399 5398 5399 5400 5403 5408 5416 5424 5435
5624 5616 5611 5600 5595 5595 5590 5582 5571 5562 5560 5555 5545 5539 5534 5528 5523 5514 5499 5485 5472 5458 5444 5434 5424 5414 5409 5403 5392 5384 5387 5385 5384 5384 5384 5385 5385 5385 5387 5390 5391 5407 5416
5617 5609 5601 5593 5586 5583 5577 5566 5555 5551 5549 5546 5539 5534 5527 5517 5508 5495 5481 5468 5455 5442 5430 5420 5404 5394 5387 5376 5374 5372 5373 5370 5371 5371 5372 5372 5372 5372 5373 5375 5376 5381 5395
5609 5601 5591 5587 5580 5574 5565 5556 5546 5540 5538 5535 5529 5521 5510 5497 5483 5471 5458 5445 5431 5420 5408 5394 5381 5374 5370 5365 5363 5360 5359 5357 5357 5357 5356 5358 5359 5360 5360 5361 5363 5367 5373
5584 5580 5577 5570 5560 5552 5546 5538 5534 5533 5526 5522 5514 5503 5490 5477 5464 5450 5437 5426 5413 5400 5387 5377 5368 5363 5359 5355 5350 5347 5345 5342 5343 5342 5340 5342 5343 5344 5345 5346 5349 5353 5356
5578 5571 5561 5554 5548 5542 5535 5532 5527 5521 5515 5509 5497 5484 5471 5459 5445 5430 5417 5407 5394 5382 5372 5363 5357 5352 5347 5343 5337 5334 5332 5329 5328 5327 5323 5325 5325 5324 5323 5324 5327 5330 5334
5561 5552 5546 5541 5536 5529 5521 5517 5512 5504 5498 5489 5477 5465 5451 5437 5424 5412 5400 5388 5378 5366 5358 5352 5346 5339 5334 5329 5323 5319 5317 5315 5312 5310 5306 5306 5303 5304 5303 5301 5303 5306 5311
5547 5539 5532 5526 5521 5515 5508 5502 5493 5485 5479 5467 5457 5446 5434 5420 5404 5391 5379 5370 5361 5353 5345 5339 5333 5327 5321 5315 5310 5305 5302 5298 5294 5289 5283 5280 5277 5275 5274 5276 5279 5280 5283
5532 5524 5520 5515 5509 5502 5493 5483 5474 5467 5458 5447 5431 5419 5408 5398 5388 5377 5367 5355 5346 5339 5332 5326 5319 5313 5306 5301 5295 5288 5282 5276 5271 5267 5263 5261 5259 5261 5261 5262 5267 5264 5265
5517 5512 5507 5501 5493 5485 5476 5464 5452 5442 5429 5419 5407 5396 5386 5374 5366 5355 5345 5335 5331 5325 5319 5312 5305 5298 5292 5285 5276 5267 5261 5256 5252 5252 5253 5254 5255 5257 5259 5261 5262 5261 5260
5501 5495 5490 5483 5476 5466 5453 5443 5435 5427 5418 5404 5391 5379 5369 5355 5346 5339 5335 5328 5320 5313 5305 5298 5291 5283 5273 5265 5258 5252 5249 5248 5246 5247 5250 5253 5256 5257 5259 5261 5262 5264 5264
5492 5486 5478 5468 5455 5444 5434 5426 5416 5409 5398 5386 5375 5367 5357 5347 5340 5332 5323 5313 5306 5298 5291 5285 5275 5265 5258 5252 5247 5245 5245 5245 5246 5248 5251 5253 5256 5257 5256 5258 5259 5262 5264
5476 5470 5463 5450 5439 5427 5418 5408 5399 5391 5382 5371 5362 5355 5346 5337 5328 5318 5308 5300 5293 5285 5277 5268 5261 5253 5248 5244 5242 5242 5243 5245 5248 5250 5250 5252 5254 5256 5256 5256 5258 5260 5262
5464 5455 5446 5432 5422 5413 5405 5393 5386 5376 5364 5354 5346 5339 5331 5322 5313 5304 5295 5288 5279 5272 5265 5258 5248 5242 5239 5238 5239 5240 5241 5242 5245 5248 5248 5249 5251 5253 5254 5254 5255 5258 5261
5454 5438 5424 5416 5408 5400 5389 5375 5367 5356 5347 5338 5331 5322 5315 5307 5299 5290 5281 5274 5267 5259 5249 5241 5237 5233 5232 5234 5237 5238 5237 5238 5242 5244 5247 5248 5249 5251 5252 5250 5252 5255 5256
5433 5421 5412 5403 5393 5383 5372 5361 5348 5339 5331 5324 5316 5307 5300 5293 5286 5276 5268 5261 5254 5244 5233 5230 5228 5227 5228 5231 5235 5236 5236 5238 5238 5243 5246 5249 5251 5252 5253 5254 5255 5257 5257
5410 5403 5395 5388 5375 5367 5355 5343 5331 5324 5316 5308 5300 5292 5287 5279 5270 5263 5256 5249 5242 5231 5224 5223 5224 5226 5229 5231 5233 5235 5237 5240 5242 5243 5245 5249 5252 5254 5255 5257 5259 5260 5260
5391 5384 5382 5371 5359 5352 5341 5329 5320 5312 5303 5293 5285 5278 5269 5263 5256 5250 5243 5234 5226 5220 5222 5219 5220 5224 5228 5230 5232 5235 5239 5242 5243 5242 5244 5245 5246 5248 5251 5255 5261 5265 5268
5374 5365 5360 5351 5343 5336 5326 5319 5309 5298 5287 5278 5271 5263 5255 5249 5243 5237 5229 5222 5216 5212 5216 5216 5218 5220 5223 5226 5231 5236 5240 5242 5240 5240 5241 5241 5240 5243 5246 5253 5260 5263 5263
5359 5353 5342 5333 5324 5317 5307 5297 5291 5282 5273 5264 5257 5247 5240 5234 5228 5222 5216 5212 5208 5208 5210 5212 5212 5214 5219 5225 5231 5234 5238 5239 5239 5238 5234 5235 5237 5238 5242 5247 5255 5259 5259